DW4127 Weather Reports


Display with metric or nautical units.
time (UTC)temp
F
wind
direction
speed
MPH
gust
MPH
rain 1hr
in
rain 24hr
in
rain mn
in
humidity
%
barometer
mb
20260507224549 73 113 2.0 7.0 0.00 0.00 0.00 52 1014.2
20260507223549 73 135 1.0 3.0 0.00 0.00 0.00 51 1014.4
20260507222549 73 113 2.0 6.0 0.00 0.00 0.00 53 1014.4
20260507221549 73 113 1.0 4.0 0.00 0.00 0.00 53 1014.4
20260507220549 74 113 2.0 7.0 0.00 0.00 0.00 52 1014.6
20260507215549 74 113 1.0 3.0 0.00 0.00 0.00 51 1014.5
20260507214549 74 113 1.0 4.0 0.00 0.00 0.00 52 1014.8
20260507213549 73 113 4.0 8.0 0.00 0.00 0.00 52 1014.8
20260507212549 73 113 3.0 8.0 0.00 0.00 0.00 53 1014.9
20260507211549 74 113 4.0 8.0 0.00 0.00 0.00 52 1015.0
20260507210549 73 135 4.0 9.0 0.00 0.00 0.00 52 1015.0
20260507205549 75 113 2.0 6.0 0.00 0.00 0.00 53 1015.0
20260507204549 73 158 1.0 4.0 0.00 0.00 0.00 54 1014.9
20260507203549 73 158 4.0 9.0 0.00 0.00 0.00 54 1015.0
20260507202549 75 113 2.0 5.0 0.00 0.00 0.00 52 1015.3
20260507201549 76 113 2.0 7.0 0.00 0.00 0.00 50 1015.5
20260507200549 76 113 2.0 10.0 0.00 0.00 0.00 51 1015.6
20260507195609 75 135 2.0 7.0 0.00 0.00 0.00 51 1015.7
20260507194548 76 23 1.0 3.0 0.00 0.00 0.00 49 1015.9
20260507193548 75 113 2.0 6.0 0.00 0.00 0.00 48 1016.0
20260507192549 77 23 2.0 5.0 0.00 0.00 0.00 51 1016.1
20260507191549 76 0 3.0 8.0 0.00 0.00 0.00 49 1016.3
20260507190548 76 45 2.0 4.0 0.00 0.00 0.00 49 1016.4
20260507185548 76 0 2.0 5.0 0.00 0.00 0.00 50 1016.5
20260507184548 74 45 4.0 9.0 0.00 0.00 0.00 50 1016.5
20260507183549 74 68 2.0 6.0 0.00 0.00 0.00 51 1016.7
20260507182548 73 45 3.0 9.0 0.00 0.00 0.00 53 1016.8
20260507181548 72 45 4.0 10.0 0.00 0.00 0.00 52 1016.9
20260507180548 73 90 1.0 5.0 0.00 0.00 0.00 54 1017.1
20260507175549 73 135 2.0 5.0 0.00 0.00 0.00 56 1017.3
20260507174548 71 0 4.0 13.0 0.00 0.00 0.00 56 1017.4
20260507173548 70 0 4.0 10.0 0.00 0.00 0.00 57 1017.5
20260507172629 72 45 1.0 5.0 0.00 0.00 0.00 55 1017.8
20260507171549 71 0 1.0 2.0 0.00 0.00 0.00 57 1018.0
20260507170548 69 45 4.0 9.0 0.00 0.00 0.00 53 1018.3
20260507165548 70 0 1.0 5.0 0.00 0.00 0.00 56 1018.7
20260507164549 69 45 2.0 5.0 0.00 0.00 0.00 59 1018.7
20260507163609 68 113 2.0 7.0 0.00 0.00 0.00 59 1018.7
20260507162548 68 23 1.0 4.0 0.00 0.00 0.00 62 1018.9
20260507161548 67 90 1.0 3.0 0.00 0.00 0.00 64 1018.7
20260507160608 67 45 2.0 8.0 0.00 0.00 0.00 62 1018.8
20260507155549 67 45 2.0 5.0 0.00 0.00 0.00 64 1018.9
20260507154548 66 315 2.0 5.0 0.00 0.01 0.00 66 1018.9
20260507153608 65 338 2.0 6.0 0.00 0.02 0.00 67 1019.0
20260507152609 64 338 3.0 8.0 0.00 0.07 0.00 66 1019.1
20260507151549 63 338 2.0 8.0 0.00 0.07 0.00 67 1019.2
20260507150548 64 45 2.0 5.0 0.00 0.07 0.00 69 1019.4
20260507145548 63 23 1.0 4.0 0.00 0.07 0.00 72 1019.3
20260507144548 61 338 4.0 8.0 0.00 0.07 0.00 71 1019.3
20260507143549 61 0 1.0 5.0 0.00 0.07 0.00 73 1019.5
20260507142608 60 0 2.0 4.0 0.00 0.07 0.00 74 1019.4
20260507141548 60 0 1.0 3.0 0.00 0.07 0.00 75 1019.4
20260507140548 59 0 1.0 4.0 0.00 0.07 0.00 76 1019.6
20260507135548 58 0 2.0 5.0 0.00 0.07 0.00 78 1019.7
20260507134548 58 0.0 1.0 0.00 0.07 0.00 81 1019.8
20260507133548 58 338 1.0 4.0 0.00 0.07 0.00 82 1019.9
20260507132548 57 315 1.0 4.0 0.00 0.07 0.00 85 1019.8
20260507131609 56 0 1.0 3.0 0.00 0.07 0.00 86 1019.8
20260507130548 56 0.0 0.0 0.00 0.07 0.00 87 1019.7
20260507125548 55 0.0 0.0 0.00 0.07 0.00 88 1019.7
20260507124548 55 0.0 0.0 0.00 0.07 0.00 89 1019.4
20260507123548 54 0.0 0.0 0.00 0.07 0.00 89 1019.4
20260507122548 54 0.0 0.0 0.00 0.07 0.00 89 1019.4
20260507121548 53 0.0 0.0 0.00 0.07 0.00 89 1019.2
20260507120548 52 0.0 0.0 0.00 0.07 0.00 89 1019.1
20260507115608 52 0.0 0.0 0.00 0.07 0.00 89 1018.9
20260507114548 52 0.0 2.0 0.00 0.07 0.00 89 1019.0
20260507113548 52 0.0 0.0 0.00 0.07 0.00 89 1018.6
20260507112608 53 0.0 0.0 0.00 0.07 0.00 88 1018.7
20260507111548 53 0.0 0.0 0.00 0.07 0.00 88 1018.6
20260507110608 53 0.0 0.0 0.00 0.07 0.00 88 1018.5
20260507105548 53 0.0 0.0 0.00 0.07 0.00 88 1018.0
20260507104548 53 0.0 1.0 0.00 0.07 0.00 88 1017.8
20260507103548 53 0.0 0.0 0.00 0.07 0.00 88 1017.7
20260507102548 53 0.0 1.0 0.00 0.07 0.00 88 1017.7
20260507101549 53 0.0 2.0 0.00 0.07 0.00 88 1017.4
20260507100548 53 0.0 1.0 0.00 0.07 0.00 87 1017.3
20260507095548 53 0.0 2.0 0.00 0.07 0.00 87 1017.2
20260507094548 54 0.0 0.0 0.00 0.07 0.00 87 1017.2
20260507093548 54 0.0 1.0 0.00 0.07 0.00 87 1017.1
20260507092548 54 0.0 2.0 0.00 0.07 0.00 86 1017.1
20260507091608 54 0.0 1.0 0.00 0.07 0.00 86 1017.0
20260507090608 54 0.0 0.0 0.00 0.07 0.00 85 1016.9
20260507085548 55 0.0 0.0 0.00 0.07 0.00 84 1017.0
20260507084548 55 0 1.0 4.0 0.00 0.07 0.00 84 1016.9
20260507083548 55 0 1.0 3.0 0.00 0.07 0.00 83 1016.9
20260507082548 55 0.0 3.0 0.00 0.07 0.00 83 1017.0
20260507081608 56 0 1.0 2.0 0.00 0.07 0.00 83 1017.0
20260507080548 56 0.0 1.0 0.00 0.07 0.00 83 1016.8
20260507075548 56 0.0 1.0 0.00 0.07 0.00 82 1016.6
20260507074548 56 0 1.0 2.0 0.00 0.07 0.00 82 1016.3
20260507073548 56 0.0 2.0 0.00 0.07 0.00 83 1016.3
20260507072548 56 0.0 2.0 0.00 0.07 0.00 82 1016.2
20260507071548 56 0.0 2.0 0.00 0.07 0.00 82 1016.4
20260507070548 56 0.0 2.0 0.00 0.07 0.00 82 1016.4
20260507065608 56 0.0 2.0 0.00 0.07 0.00 82 1016.4
20260507064548 56 68 1.0 2.0 0.00 0.07 0.00 83 1016.4
20260507063548 56 0.0 2.0 0.00 0.07 0.00 83 1016.1
20260507062608 56 0.0 1.0 0.00 0.07 0.00 82 1016.1
20260507061548 57 0.0 1.0 0.00 0.07 0.00 82 1016.0
20260507060548 57 0.0 2.0 0.00 0.07 0.00 82 1016.0
20260507055548 57 68 1.0 2.0 0.00 0.07 0.00 81 1016.0
20260507054548 57 45 1.0 3.0 0.00 0.07 0.00 81 1016.1
20260507053548 58 45 1.0 3.0 0.00 0.07 0.00 81 1016.0
20260507052548 58 0.0 2.0 0.00 0.07 0.00 80 1016.1
20260507051548 58 0.0 2.0 0.00 0.07 0.00 79 1016.2
20260507050548 58 0.0 2.0 0.00 0.07 0.00 79 1016.2
20260507045549 59 90 1.0 3.0 0.00 0.07 0.07 79 1016.3
20260507044549 59 0.0 2.0 0.00 0.07 0.07 78 1016.2
20260507043549 59 0.0 2.0 0.00 0.07 0.07 79 1016.3
20260507042549 59 0.0 2.0 0.00 0.07 0.07 79 1016.4
20260507041549 59 338 1.0 3.0 0.00 0.07 0.07 78 1016.8
20260507040549 59 0 3.0 10.0 0.00 0.07 0.07 78 1016.8
20260507035549 60 23 2.0 8.0 0.00 0.07 0.07 78 1016.7
20260507034549 60 23 2.0 5.0 0.00 0.07 0.07 79 1016.6
20260507033609 60 0 3.0 8.0 0.00 0.07 0.07 78 1016.7
20260507032549 60 338 2.0 8.0 0.00 0.07 0.07 79 1016.4
20260507031549 60 0 3.0 7.0 0.00 0.07 0.07 79 1016.4
20260507030549 60 315 2.0 6.0 0.00 0.07 0.07 79 1016.2
20260507025609 60 0 2.0 8.0 0.00 0.07 0.07 79 1015.9
20260507024549 60 338 2.0 8.0 0.00 0.07 0.07 79 1015.8
20260507023549 60 0 1.0 5.0 0.00 0.07 0.07 79 1015.7
20260507022549 60 338 1.0 4.0 0.00 0.07 0.07 79 1015.4
20260507021549 60 68 1.0 3.0 0.00 0.07 0.07 79 1015.3
20260507020609 60 0 1.0 4.0 0.00 0.07 0.07 79 1015.1
20260507015549 60 23 2.0 7.0 0.00 0.07 0.07 79 1014.9
20260507014549 60 0 1.0 5.0 0.00 0.07 0.07 80 1014.7
20260507013549 60 0 1.0 4.0 0.00 0.07 0.07 80 1014.4
20260507012549 60 0 2.0 4.0 0.00 0.07 0.07 80 1014.3
20260507011549 60 0 2.0 4.0 0.00 0.07 0.07 79 1014.1
20260507010549 60 338 1.0 3.0 0.00 0.07 0.07 80 1013.9
20260507005549 60 0 2.0 5.0 0.00 0.07 0.07 80 1013.9
20260507004549 60 0 1.0 5.0 0.00 0.07 0.07 80 1013.9
20260507003549 60 0 1.0 5.0 0.00 0.07 0.07 80 1013.6
20260507002549 60 0 1.0 4.0 0.00 0.07 0.07 79 1013.6
20260507001549 60 338 1.0 4.0 0.00 0.07 0.07 79 1013.5
20260507000549 60 23 1.0 3.0 0.00 0.07 0.07 79 1013.3
20260506235549 61 0 2.0 6.0 0.00 0.07 0.07 78 1013.3
20260506234549 61 23 1.0 2.0 0.00 0.07 0.07 78 1013.4
20260506233609 61 45 2.0 6.0 0.00 0.07 0.07 78 1013.1
20260506232549 61 0 1.0 3.0 0.00 0.07 0.07 78 1013.1
20260506231549 61 0 1.0 5.0 0.00 0.07 0.07 77 1012.9
20260506230549 61 0 4.0 9.0 0.00 0.07 0.07 76 1012.8
20260506225549 61 0 3.0 9.0 0.00 0.07 0.07 75 1012.7